STARLINK-11590, 63112

Orbit data source: Space-Track

STARLINK-11590, 63112 is a payload satellite owned by SpaceX/Seattle (US) in LEO that was launched on Thu, 27 Feb 2025 UTC via an FALCON 9 launch vehicle from the Air Force Eastern Test Range (AFETR). Payload-class satellites include a variety of spacecraft equipped with specific instruments for various scientific and technological missions. These include communications satellites like Starlink; space stations such as the ISS; scientific satellites like the Hubble; Earth observation satellites from companies like Planet Labs, Umbra, and HawkEye 360; GPS; miniature CubeSats for education and research; and military/defense satellites.

Loading next visibility...
Identifier
63112, 2025-039J
Orbit
LEO
Country
Flag of USUS
Related business
Manufacturer
SpaceX/Seattle
Mission
Operational Commercial Communications
Bus & Motor
STARLINK V2MD, Unknown motor
Mass
960 kg wet, ~910 kg dry
Launch date (UTC)
2025-02-27 (7 months ago)
Launch vehicle
FALCON 9
Launch site
Air Force Eastern Test Range (AFETR)
Object type
Payload
Rocket body
Debris
Shape & HBR
Box + 2 Pan, 14.5 m
Radar Cross Section
36.964 m², Large (>1 m²)

Expand to show TLE details & history
Last TLE update: 1 day ago

TLE from 1 day ago
0 STARLINK-11590
1 63112U 25039J   25260.12731457  .00154866  00000-0  11862-2 0  9997
2 63112  43.0022 203.4639 0002334 269.4314  90.6286 15.70875252 32316
Epoch: 2025-09-17T03:03Z
TLE epoch observation values (Epoch: 2025-09-17T03:03:19.978Z)
Latitude
-0.00005°
Longitude
161.32288°
Altitude
356.183 km
Speed
7.697 km/s
True Right ascension
13h 33m 51s
True Declination
0° 00' 00"
Sunlit
Object was in daylight at epoch
Visualization orbit readout
Latitude
Unknown
Longitude
Unknown
Altitude
Unknown
Speed
Unknown
Apparent Right ascension
Unknown
Apparent Declination
Unknown
Sunlit
N/A
Visualization observer readout
Local Sidereal Time
22:16:02
Azimuth
Unknown
Elevation
Unknown
Doppler factor
Unknown
Orbital elements
Apogee altitude
359.948 km
Perigee altitude
356.803 km
Semi-major axis
6,736.513 km
Eccentricity
0.00023
Inclination
43.0022°
RAAN
203.4639°
Arg. of periapsis
269.4314°
True anomaly
90.65534°
Mean anomaly
90.6286°
Eccentric anomaly
90.64197°
Mean motion
3.92546 °/min
Orbital period
91.71 mins
BSTAR
0.0011862
Loading maneuver chart data...
Computing Atmospheric mass density...
Loading historical data...
Loading historical data...
Loading historical data...
Loading historical data...
Loading historical data...
Loading historical data...
Loading historical data...

Documentation

Showing up to 5 results
|